N3TUQ-2 Weather Reports


time (UTC)temp
C
wind
direction
speed
KPH
gust
KPH
rain 1hr
cm
rain 24hr
cm
rain mn
cm
humidity
%
barometer
mb
20260509043335 7 0 0.0 1.6 0.13 0.43 0.08 1010.1
20260509043333 7 0 0.0 1.6 0.13 0.43 0.08 96 1010.1
20260509042033 7 0 0.0 1.6 0.10 0.38 0.03 96 1010.1
20260509040733 7 0 0.0 1.6 0.08 0.36 0.36 96 1009.9
20260509033636 7 0 0.0 0.0 0.13 0.30 0.30 95 1009.9
20260509032336 7 0 0.0 4.8 0.10 0.28 0.28 95 1009.8
20260509031036 7 0 0.0 3.2 0.13 0.28 0.28 95 1010.1
20260509025023 8 0 0.0 0.0 0.05 0.25 0.20 95 1010.4
20260509024239 8 0 0.0 1.6 0.03 0.23 0.18 94 1010.2
20260509023723 8 0 0.0 1.6 0.03 0.23 0.18 94 1010.2
20260509020703 8 0 0.0 3.2 0.05 0.23 0.15 94 1010.1
20260509014222 8 0 0.0 1.6 0.15 0.41 0.15 93 1009.8
20260509012922 8 0 0.0 1.6 0.15 0.43 0.15 92 1009.7
20260509011625 8 0 0.0 3.2 0.13 0.41 0.13 91 1009.7
20260509010323 9 0 0.0 6.4 0.08 0.36 0.08 88 1009.6
20260509005023 9 0 0.0 3.2 0.00 0.28 0.00 85 1009.3
20260509003723 9 0 0.0 3.2 0.00 0.28 0.00 84 1009.0
20260509002422 9 0 0.0 0.0 0.00 0.28 0.00 84 1009.0
20260509000644 10 0 0.0 1.6 0.00 0.28 0.00 80 1008.8
20260508235344 10 0 0.0 1.6 0.00 0.28 0.00 80 1008.8
20260508234044 10 0 0.0 4.8 0.00 0.28 0.00 80 1008.7
20260508232533 10 0 0.0 3.2 0.00 0.28 0.00 77 1008.3
20260508231233 11 0 0.0 4.8 0.00 0.28 0.00 80 1008.2
20260508225932 11 0 0.0 6.4 0.00 0.28 0.00 75 1008.2
20260508224633 12 0 0.0 11.3 0.00 0.28 0.00 70 1008.2
20260508223333 13 167 1.6 11.3 0.00 0.28 0.00 64 1008.0
20260508221454 13 0 0.0 3.2 0.00 0.28 0.00 58 1008.0
20260508220154 15 0 0.0 3.2 0.00 0.28 0.00 59 1008.0
20260508214438 13 0 0.0 8.0 0.00 0.28 0.00 63 1008.1
20260508213138 13 0 0.0 3.2 0.00 0.28 0.00 63 1007.9
20260508211542 13 0 0.0 3.2 0.00 0.28 0.00 55 1008.0
20260508210242 13 202 1.6 6.4 0.00 0.28 0.00 55 1008.1
20260508204648 14 0 0.0 14.5 0.00 0.28 0.00 55 1008.2
20260508203348 15 0 0.0 4.8 0.00 0.28 0.00 54 1008.3
20260508201205 13 0 0.0 12.9 0.00 0.28 0.00 58 1008.6
20260508195905 13 345 1.6 9.7 0.00 0.28 0.00 58 1008.9
20260508194605 12 0 0.0 6.4 0.00 0.28 0.00 60 1008.8
20260508193304 11 331 1.6 8.0 0.00 0.28 0.00 67 1009.2
20260508190705 12 320 3.2 9.7 0.00 0.28 0.00 61 1009.1
20260508185405 12 323 6.4 14.5 0.00 0.28 0.00 60 1009.0
20260508184105 12 314 8.0 14.5 0.00 0.28 0.00 57 1009.3
20260508182809 -17 0 0.0 12.9 0.00 0.28 0.00 64 1009.4
20260508182805 12 0 0.0 12.9 0.00 0.28 0.00 64 1009.4
20260508181508 11 323 3.2 14.5 0.00 0.28 0.00 62 3009.7
20260508181504 11 323 3.2 14.5 0.00 0.28 0.00 62 1009.7
20260508175742 11 336 1.6 11.3 0.00 0.28 0.00 63 1009.9
20260508174442 11 330 1.6 17.7 0.00 0.28 0.00 65 1010.0
20260508173142 10 11 3.2 14.5 0.00 0.28 0.00 66 1010.0
20260508171842 10 237 1.6 6.4 0.00 0.28 0.00 67 1010.2
20260508170323 11 331 4.8 14.5 0.00 0.28 0.00 65 1010.2
20260508170321 11 331 4.8 14.5 0.00 0.28 0.00 65 1010.2
20260508165026 9 317 6.4 20.9 0.00 0.28 0.00 68 1010.5
20260508165022 9 317 6.4 20.9 0.00 0.28 0.00 68 1010.5
20260508163721 10 342 3.2 12.9 0.00 0.28 0.00 69 1010.4
20260508162421 9 332 3.2 14.5 0.00 0.28 0.00 73 1010.6
20260508161121 8 341 1.6 11.3 0.00 0.28 0.00 84 1010.9
20260508155821 7 0 0.0 8.0 0.00 0.28 0.00 81 1011.1
20260508154524 8 0 0.0 6.4 0.00 0.28 0.00 77 1010.9
20260508154521 8 0 0.0 6.4 0.00 0.28 0.00 77 1010.9
20260508153221 8 0 0.0 9.7 0.00 0.28 0.00 78 1010.6
20260508151922 7 0 0.0 6.4 0.00 0.28 0.00 80 1010.5
20260508150621 7 0 0.0 8.0 0.00 0.28 0.00 81 1010.7
20260508145321 7 0 0.0 3.2 0.00 0.28 0.00 81 1010.5
20260508144021 8 0 0.0 4.8 0.00 0.28 0.00 77 1010.3
20260508142721 8 0 0.0 12.9 0.00 0.28 0.00 79 1010.2
20260508141421 8 307 3.2 8.0 0.00 0.28 0.00 79 1010.2
20260508140121 8 332 6.4 11.3 0.00 0.28 0.00 80 1010.2
20260508134823 7 0 0.0 9.7 0.00 0.28 0.00 85 1010.4
20260508134821 7 0 0.0 9.7 0.00 0.28 0.00 85 1010.4
20260508133524 -17 0 0.0 6.4 0.00 0.28 0.00 93 1010.3
20260508133521 7 0 0.0 6.4 0.00 0.28 0.00 93 1010.3
20260508132221 6 0 0.0 6.4 0.00 0.28 0.00 98 1010.5
20260508130921 4 0 0.0 1.6 0.00 0.28 0.00 98 1010.6
20260508121941 2 0 0.0 0.0 0.00 0.28 0.00 97 1010.6
20260508120646 1 0 0.0 0.0 0.00 0.28 0.00 97
20260508120642 1 0 0.0 0.0 0.00 0.28 0.00 97 1010.5
20260508115342 1 0 0.0 0.0 0.00 0.28 0.00 97 1010.4
20260508114041 1 0 0.0 0.0 0.00 0.28 0.00 97 1010.8
20260508112010 1 0 0.0 0.0 0.00 0.28 0.00 97 1010.6
20260508110710 0 0 0.0 0.0 0.00 0.28 0.00 97 1010.6
20260508105410 0 0 0.0 0.0 0.00 0.28 0.00 97 1010.4
20260508104111 0 0 0.0 0.0 0.00 0.28 0.00 97 1010.2
20260508102811 0 0 0.0 0.0 0.00 0.28 0.00 97 1010.2
20260508101516 0 0 0.0 0.0 0.00 0.28 0.00 97 3010.4
20260508101511 0 0 0.0 0.0 0.00 0.28 0.00 97 1010.4
20260508100210 0 0 0.0 0.0 0.00 0.28 0.00 97 1010.2
20260508094910 -1 0 0.0 0.0 0.00 0.28 0.00 96 1010.3
20260508092024 0 0 0.0 0.0 0.00 0.28 0.00 96 1010.2
20260508090724 0 0 0.0 0.0 0.00 0.28 0.00 96 1010.2
20260508085423 0 0 0.0 0.0 0.00 0.28 0.00 96 1010.1
20260508084123 0 0 0.0 0.0 0.00 0.28 0.00 97 1010.1
20260508082823 0 0 0.0 0.0 0.00 0.28 0.00 97 1010.1
20260508081523 0 0 0.0 0.0 0.00 0.28 0.00 97 1010.1
20260508080224 0 0 0.0 0.0 0.00 0.28 0.00 96 1010.0
20260508074924 0 0 0.0 0.0 0.00 0.28 0.00 96 1010.0
20260508073624 1 0 0.0 0.0 0.00 0.28 0.00 97 1009.9
20260508072326 1 0 0.0 0.0 0.00 0.28 0.00 97 1010.0
20260508072323 1 0 0.0 0.0 0.00 0.28 0.00 97 1010.0
20260508070140 1 0 0.0 0.0 0.00 0.28 0.00 97 1009.9
20260508064840 1 0 0.0 0.0 0.00 0.28 0.00 96 1009.9
20260508063544 1 0 0.0 0.0 0.00 0.28 0.00 96 1010.1
20260508063541 1 0 0.0 0.0 0.00 0.28 0.00 96 1010.1
20260508061050 1 0 0.0 0.0 0.00 0.28 0.00 96 1010.1
20260508055343 1 0 0.0 0.0 0.00 0.28 0.00 96 1010.1
20260508054043 1 0 0.0 0.0 0.00 0.28 0.00 96 1010.0
20260508052745 1 0 0.0 0.0 0.00 0.28 0.00 1010.0
20260508052742 1 0 0.0 0.0 0.00 0.28 0.00 96 1010.0
20260508051443 2 0 0.0 0.0 0.00 0.28 0.00 96 1010.0
20260508050146 2 0 0.0 0.0 0.00 0.28 0.00 1010.0
20260508050143 2 0 0.0 0.0 0.00 0.28 0.00 96 1010.0
20260508044843 2 0 0.0 0.0 0.00 0.28 0.00 96 1009.8